COSMOS 1275 DEB, 42095

Orbit data source: Space-Track

COSMOS 1275 DEB, 42095 is space debris in LEO originally from a launch on Thu, 04 Jun 1981 UTC launched from the Plesetsk Missile And Space Complex (PKMTR). Debris objects in space refer to the collection of defunct objects orbiting the Earth. Examples of debris include non-operational satellites, rocket bodies, and fragments generated from explosions, collisions, or faulty payload assembly.

Loading next visibility...
Identifier
42095, 1981-053PF
Orbit
LEO
Country
Flag of CISCIS
Related business
Manufacturer
Unknown
Mission
Spacecraft
Bus & Motor
Unknown
Mass
Unknown
Launch date (UTC)
1981-06-04 (44 years ago)
Launch vehicle
Unknown
Launch site
Plesetsk Missile And Space Complex (PKMTR)
Object type
Payload
Rocket body
Debris
Shape & HBR
Unknown
Radar Cross Section
Small (<0.1 m²)

Expand to show TLE details & history
Last TLE update: 4 days ago

TLE from 4 days ago
0 COSMOS 1275 DEB
1 42095U 81053PF  25258.11682731  .00001746  00000-0  16278-2 0  9992
2 42095  82.7545  29.6539 0129782 257.9225 100.7365 13.77804945591700
Epoch: 2025-09-15T02:48Z
TLE epoch observation values (Epoch: 2025-09-15T02:48:13.879Z)
Latitude
-0.00005°
Longitude
-6.73003°
Altitude
993.545 km
Speed
7.345 km/s
True Right ascension
01h 58m 36s
True Declination
0° 00' 00"
Sunlit
Object was in full shadow at epoch
Visualization orbit readout
Latitude
Unknown
Longitude
Unknown
Altitude
Unknown
Speed
Unknown
Apparent Right ascension
Unknown
Apparent Declination
Unknown
Sunlit
N/A
Visualization observer readout
Local Sidereal Time
11:45:50
Azimuth
Unknown
Elevation
Unknown
Doppler factor
Unknown
Orbital elements
Apogee altitude
1,064.185 km
Perigee altitude
873.484 km
Semi-major axis
7,346.971 km
Eccentricity
0.01298
Inclination
82.7545°
RAAN
29.6539°
Arg. of periapsis
257.9225°
True anomaly
102.1931°
Mean anomaly
100.7365°
Eccentric anomaly
101.46526°
Mean motion
3.44652 °/min
Orbital period
104.45 mins
BSTAR
0.0016278
Loading maneuver chart data...
Computing Atmospheric mass density...
Loading historical data...
Loading historical data...
Loading historical data...
Loading historical data...
Loading historical data...
Loading historical data...
Loading historical data...

Documentation

Showing up to 5 results
|